When you browse on this site, cookies collect data to enhance your experience and personalize the content and advertising you see.
Visit our Privacy Policy to learn more. By continuing to use the site, you agree to this use of cookies and data.
  • In Hungary
  • List of Countries
  • For 7 days
  • Water Temperature
  • Weather Map
  • News
  • Weather Widgets
  • user-avatar
    Login

    Hourly Weather Bari

    Today, 22 February, Saturday

    Time Temperature Precipitation Wind Pressure Humidity
    00:00 +14°C° 0 mm 3 mps 745 mmHg 90%
    01:00 +13°C° 0 mm 3 mps 745 mmHg 92%
    02:00 +14°C° 0 mm 2 mps 745 mmHg 95%
    03:00 +14°C° 0 mm 2 mps 745 mmHg 95%
    04:00 +13°C° 0 mm 2 mps 745 mmHg 95%
    05:00 +13°C° 0 mm 2 mps 745 mmHg 95%
    06:00 +14°C° 0 mm 2 mps 746 mmHg 90%
    07:00 +15°C° 0 mm 2 mps 746 mmHg 86%
    08:00 +16°C° 0 mm 2 mps 747 mmHg 81%
    09:00 +18°C° 0 mm 2 mps 747 mmHg 70%
    10:00 +21°C° 0 mm 2 mps 747 mmHg 60%
    11:00 +24°C° 0 mm 2 mps 747 mmHg 49%
    12:00 +25°C° 0 mm 2 mps 746 mmHg 44%
    13:00 +27°C° 0 mm 2 mps 745 mmHg 39%
    14:00 +28°C° 0 mm 2 mps 744 mmHg 33%
    15:00 +28°C° 0 mm 2 mps 744 mmHg 35%
    16:00 +27°C° 0 mm 2 mps 744 mmHg 37%
    17:00 +27°C° 0 mm 2 mps 744 mmHg 39%
    18:00 +25°C° 0 mm 2 mps 744 mmHg 45%
    19:00 +23°C° 0 mm 2 mps 745 mmHg 51%
    20:00 +20°C° 0 mm 2 mps 745 mmHg 58%
    21:00 +20°C° 0 mm 2 mps 745 mmHg 61%
    22:00 +19°C° 0 mm 2 mps 745 mmHg 64%
    23:00 +19°C° 0 mm 2 mps 745 mmHg 67%

    Tomorrow, 23 February, Sunday

    Time Temperature Precipitation Wind Pressure Humidity
    00:00 +18°C° 0 mm 2 mps 745 mmHg 70%
    01:00 +18°C° 0 mm 2 mps 744 mmHg 72%
    02:00 +17°C° 0 mm 2 mps 744 mmHg 75%
    03:00 +18°C° 0 mm 1 mps 744 mmHg 77%
    04:00 +16°C° 0 mm 1 mps 744 mmHg 79%
    05:00 +16°C° 0 mm 1 mps 743 mmHg 80%
    06:00 +18°C° 0 mm 1 mps 744 mmHg 76%
    07:00 +19°C° 0 mm 1 mps 745 mmHg 71%
    08:00 +20°C° 0 mm 1 mps 745 mmHg 67%
    09:00 +21°C° 0 mm 2 mps 745 mmHg 59%
    10:00 +24°C° 0 mm 2 mps 745 mmHg 52%
    11:00 +27°C° 0 mm 3 mps 745 mmHg 44%
    12:00 +28°C° 0 mm 3 mps 744 mmHg 41%
    13:00 +28°C° 0 mm 3 mps 744 mmHg 37%
    14:00 +29°C° 0 mm 3 mps 743 mmHg 33%
    15:00 +29°C° 0 mm 2 mps 742 mmHg 34%
    16:00 +28°C° 0 mm 2 mps 742 mmHg 35%
    17:00 +28°C° 0 mm 1 mps 742 mmHg 36%
    18:00 +26°C° 0 mm 1 mps 742 mmHg 40%
    19:00 +24°C° 0 mm 1 mps 742 mmHg 44%
    20:00 +22°C° 0 mm 1 mps 743 mmHg 47%
    21:00 +22°C° 0 mm 1 mps 743 mmHg 49%
    22:00 +21°C° 0 mm 1 mps 743 mmHg 52%
    23:00 +20°C° 0 mm 1 mps 743 mmHg 54%

    Day after tomorrow, 24 February, Monday

    Time Temperature Precipitation Wind Pressure Humidity
    00:00 +20°C° 0 mm 1 mps 742 mmHg 56%
    01:00 +19°C° 0 mm 1 mps 742 mmHg 58%
    02:00 +19°C° 0 mm 1 mps 742 mmHg 59%
    03:00 +18°C° 0 mm 1 mps 742 mmHg 60%
    04:00 +18°C° 0 mm 1 mps 742 mmHg 61%
    05:00 +17°C° 0 mm 2 mps 741 mmHg 62%
    06:00 +18°C° 0 mm 2 mps 742 mmHg 58%
    07:00 +20°C° 0 mm 1 mps 743 mmHg 54%
    08:00 +21°C° 0 mm 1 mps 743 mmHg 50%
    09:00 +23°C° 0 mm 1 mps 743 mmHg 44%
    10:00 +25°C° 0 mm 1 mps 743 mmHg 39%
    11:00 +28°C° 0 mm 1 mps 743 mmHg 34%
    12:00 +29°C° 0 mm 1 mps 742 mmHg 30%
    13:00 +29°C° 0 mm 2 mps 741 mmHg 27%
    14:00 +30°C° 0 mm 2 mps 740 mmHg 24%
    15:00 +29°C° 0 mm 2 mps 740 mmHg 26%
    16:00 +29°C° 0 mm 2 mps 740 mmHg 28%
    17:00 +28°C° 0 mm 2 mps 740 mmHg 30%
    18:00 +26°C° 0 mm 2 mps 740 mmHg 33%
    19:00 +25°C° 0 mm 2 mps 740 mmHg 36%
    20:00 +23°C° 0 mm 2 mps 741 mmHg 40%
    21:00 +21°C° 0 mm 2 mps 741 mmHg 44%
    22:00 +21°C° 0 mm 1 mps 741 mmHg 48%
    23:00 +21°C° 0 mm 1 mps 741 mmHg 52%

    25 February, Tuesday

    Time Temperature Precipitation Wind Pressure Humidity
    00:00 +20°C° 0 mm 1 mps 741 mmHg 54%
    01:00 +20°C° 0 mm 1 mps 740 mmHg 55%
    02:00 +19°C° 0 mm 1 mps 740 mmHg 57%
    03:00 +18°C° 0 mm 2 mps 740 mmHg 56%
    04:00 +17°C° 0 mm 2 mps 740 mmHg 56%
    05:00 +17°C° 0 mm 2 mps 740 mmHg 55%
    06:00 +18°C° 0 mm 2 mps 741 mmHg 51%
    07:00 +20°C° 0 mm 1 mps 742 mmHg 47%
    08:00 +22°C° 0 mm 1 mps 742 mmHg 43%
    09:00 +24°C° 0 mm 1 mps 742 mmHg 37%
    10:00 +27°C° 0 mm 1 mps 742 mmHg 32%
    11:00 +29°C° 0 mm 1 mps 742 mmHg 26%
    12:00 +30°C° 0 mm 1 mps 741 mmHg 24%
    13:00 +31°C° 0 mm 2 mps 740 mmHg 22%
    14:00 +31°C° 0 mm 3 mps 740 mmHg 20%
    15:00 +31°C° 0 mm 2 mps 739 mmHg 22%
    16:00 +30°C° 0 mm 2 mps 739 mmHg 24%
    17:00 +29°C° 0 mm 1 mps 739 mmHg 25%
    18:00 +27°C° 0 mm 2 mps 739 mmHg 28%
    19:00 +25°C° 0 mm 2 mps 740 mmHg 30%
    20:00 +23°C° 0 mm 2 mps 740 mmHg 33%
    21:00 +21°C° 0 mm 2 mps 741 mmHg 34%
    22:00 +21°C° 0 mm 2 mps 741 mmHg 36%
    23:00 +21°C° 0 mm 1 mps 741 mmHg 38%

    26 February, Wednesday

    Time Temperature Precipitation Wind Pressure Humidity
    00:00 +20°C° 0 mm 1 mps 741 mmHg 40%
    01:00 +20°C° 0 mm 1 mps 741 mmHg 42%
    02:00 +19°C° 0 mm 1 mps 741 mmHg 43%
    03:00 +19°C° 0 mm 1 mps 740 mmHg 44%
    04:00 +19°C° 0 mm 1 mps 740 mmHg 45%
    05:00 +19°C° 0 mm 1 mps 740 mmHg 46%
    06:00 +20°C° 0 mm 1 mps 741 mmHg 43%
    07:00 +20°C° 0 mm 2 mps 741 mmHg 40%
    08:00 +23°C° 0 mm 2 mps 742 mmHg 37%
    09:00 +25°C° 0 mm 2 mps 742 mmHg 32%
    10:00 +28°C° 0 mm 2 mps 742 mmHg 27%
    11:00 +31°C° 0 mm 2 mps 742 mmHg 22%
    12:00 +31°C° 0 mm 2 mps 741 mmHg 20%
    13:00 +33°C° 0 mm 3 mps 741 mmHg 18%
    14:00 +34°C° 0 mm 3 mps 740 mmHg 16%
    15:00 +33°C° 0 mm 3 mps 740 mmHg 17%
    16:00 +31°C° 0 mm 2 mps 740 mmHg 19%
    17:00 +31°C° 0 mm 2 mps 740 mmHg 21%
    18:00 +29°C° 0 mm 2 mps 740 mmHg 21%
    19:00 +28°C° 0 mm 2 mps 741 mmHg 22%
    20:00 +26°C° 0 mm 3 mps 741 mmHg 23%
    21:00 +25°C° 0 mm 3 mps 741 mmHg 26%
    22:00 +24°C° 0 mm 3 mps 742 mmHg 30%
    23:00 +22°C° 0 mm 4 mps 742 mmHg 33%

    27 February, Thursday

    Time Temperature Precipitation Wind Pressure Humidity
    00:00 +21°C° 0 mm 3 mps 741 mmHg 38%
    01:00 +20°C° 0 mm 3 mps 741 mmHg 43%
    02:00 +19°C° 0 mm 3 mps 741 mmHg 47%
    03:00 +19°C° 0 mm 2 mps 741 mmHg 49%
    04:00 +18°C° 0 mm 2 mps 740 mmHg 51%
    05:00 +18°C° 0 mm 2 mps 740 mmHg 54%
    06:00 +19°C° 0 mm 2 mps 741 mmHg 50%
    07:00 +20°C° 0 mm 2 mps 741 mmHg 47%
    08:00 +21°C° 0 mm 2 mps 742 mmHg 44%
    09:00 +25°C° 0 mm 2 mps 742 mmHg 36%
    10:00 +28°C° 0 mm 2 mps 742 mmHg 29%
    11:00 +31°C° 0 mm 2 mps 741 mmHg 21%
    12:00 +32°C° 0 mm 2 mps 741 mmHg 19%
    13:00 +34°C° 0 mm 3 mps 740 mmHg 17%
    14:00 +35°C° 0 mm 3 mps 739 mmHg 14%
    15:00 +34°C° 0 mm 3 mps 739 mmHg 16%
    16:00 +34°C° 0 mm 2 mps 739 mmHg 18%
    17:00 +32°C° 0 mm 2 mps 739 mmHg 20%
    18:00 +29°C° 0 mm 2 mps 739 mmHg 24%
    19:00 +27°C° 0 mm 2 mps 739 mmHg 27%
    20:00 +25°C° 0 mm 3 mps 740 mmHg 30%
    21:00 +24°C° 0 mm 2 mps 740 mmHg 35%
    22:00 +23°C° 0 mm 2 mps 740 mmHg 39%
    23:00 +21°C° 0 mm 2 mps 740 mmHg 44%
    Show more